Location: B?dimalle
(17.1788°N, 80.5377°E)
Time: 08:52:53
(UTC+00:00)

Courier 1B Rocket - Pass Details

Date: 13 December 2025
Orbit: 920 x 1201 km, 28.2° (Epoch: 25 January)

Event Time Altitude Azimuth Distance (km) Brightness Sun altitude
Exits shadow 22:14:46 42° 103° (ESE) 1,360 6.0 -37.8°
Drops below altitude 10° 22:18:47 10° 110° (ESE) 2,662 8.0 -36.8°
Sets 22:21:21 0° 111° (ESE) 3,582 8.9 -36.3°
